• In Lithuania
  • List of Countries
  • For 7 days
  • Water Temperature
  • Satellite Maps
  • Weather Map
  • Weather Widgets
  • user-avatar
    Login

    Hourly Weather Albany

    Today, 22 October, Sunday

    Time Temperature Precipitation Wind Pressure Humidity
    00:00 +17°C° 0 mm 7 mps 759 mmHg 69%
    01:00 +17°C° 0 mm 6 mps 759 mmHg 71%
    02:00 +17°C° 0 mm 5 mps 758 mmHg 72%
    03:00 +18°C° 0.1 mm 4 mps 758 mmHg 77%
    04:00 +17°C° 0.1 mm 4 mps 758 mmHg 83%
    05:00 +17°C° 0.1 mm 4 mps 758 mmHg 88%
    06:00 +18°C° 0.2 mm 4 mps 758 mmHg 87%
    07:00 +18°C° 0.2 mm 4 mps 757 mmHg 85%
    08:00 +20°C° 0 mm 3 mps 757 mmHg 83%
    09:00 +22°C° 0.1 mm 4 mps 757 mmHg 74%
    10:00 +25°C° 0.1 mm 4 mps 757 mmHg 65%
    11:00 +26°C° 0.1 mm 4 mps 756 mmHg 56%
    12:00 +26°C° 0.2 mm 4 mps 756 mmHg 57%
    13:00 +26°C° 0.2 mm 4 mps 755 mmHg 59%
    14:00 +26°C° 0 mm 3 mps 755 mmHg 60%
    15:00 +25°C° 0.1 mm 4 mps 755 mmHg 64%
    16:00 +23°C° 0.1 mm 4 mps 755 mmHg 68%
    17:00 +22°C° 0.1 mm 4 mps 755 mmHg 72%
    18:00 +20°C° 0 mm 4 mps 755 mmHg 77%
    19:00 +19°C° 0 mm 3 mps 755 mmHg 83%
    20:00 +17°C° 0 mm 3 mps 755 mmHg 88%
    21:00 +17°C° 0 mm 3 mps 755 mmHg 89%
    22:00 +16°C° 0 mm 2 mps 755 mmHg 89%
    23:00 +16°C° 0 mm 2 mps 755 mmHg 90%

    Tomorrow, 23 October, Monday

    Time Temperature Precipitation Wind Pressure Humidity
    00:00 +15°C° 0 mm 2 mps 755 mmHg 90%
    01:00 +15°C° 0 mm 1 mps 755 mmHg 89%
    02:00 +15°C° 0 mm 1 mps 755 mmHg 89%
    03:00 +15°C° 0 mm 1 mps 755 mmHg 89%
    04:00 +15°C° 0 mm 1 mps 755 mmHg 90%
    05:00 +15°C° 0 mm 1 mps 755 mmHg 90%
    06:00 +16°C° 0 mm 1 mps 755 mmHg 85%
    07:00 +19°C° 0 mm 1 mps 756 mmHg 80%
    08:00 +20°C° 0 mm 2 mps 756 mmHg 75%
    09:00 +21°C° 0 mm 2 mps 756 mmHg 72%
    10:00 +21°C° 0 mm 2 mps 756 mmHg 70%
    11:00 +23°C° 0 mm 2 mps 756 mmHg 67%
    12:00 +23°C° 0.2 mm 2 mps 756 mmHg 69%
    13:00 +22°C° 0.2 mm 3 mps 756 mmHg 70%
    14:00 +22°C° 0.2 mm 3 mps 756 mmHg 71%
    15:00 +21°C° 0.1 mm 3 mps 756 mmHg 75%
    16:00 +20°C° 0.1 mm 3 mps 756 mmHg 79%
    17:00 +19°C° 0.1 mm 3 mps 756 mmHg 83%
    18:00 +18°C° 0.1 mm 3 mps 757 mmHg 86%
    19:00 +18°C° 0.1 mm 3 mps 757 mmHg 90%
    20:00 +17°C° 0.1 mm 3 mps 758 mmHg 94%
    21:00 +16°C° 0.2 mm 3 mps 758 mmHg 94%
    22:00 +16°C° 0.2 mm 3 mps 758 mmHg 95%
    23:00 +16°C° 0.2 mm 3 mps 758 mmHg 95%

    Day after tomorrow, 24 October, Tuesday

    Time Temperature Precipitation Wind Pressure Humidity
    00:00 +14°C° 0.1 mm 3 mps 758 mmHg 94%
    01:00 +14°C° 0.1 mm 4 mps 758 mmHg 93%
    02:00 +14°C° 0.1 mm 4 mps 758 mmHg 92%
    03:00 +14°C° 0.1 mm 4 mps 758 mmHg 91%
    04:00 +14°C° 0.1 mm 4 mps 758 mmHg 90%
    05:00 +13°C° 0.1 mm 3 mps 758 mmHg 89%
    06:00 +14°C° 0 mm 3 mps 759 mmHg 84%
    07:00 +16°C° 0 mm 3 mps 759 mmHg 79%
    08:00 +17°C° 0 mm 3 mps 759 mmHg 74%
    09:00 +18°C° 0 mm 3 mps 759 mmHg 67%
    10:00 +19°C° 0 mm 3 mps 759 mmHg 59%
    11:00 +20°C° 0 mm 3 mps 759 mmHg 52%
    12:00 +20°C° 0 mm 3 mps 759 mmHg 52%
    13:00 +21°C° 0 mm 3 mps 758 mmHg 51%
    14:00 +21°C° 0 mm 3 mps 758 mmHg 50%
    15:00 +20°C° 0 mm 3 mps 758 mmHg 54%
    16:00 +20°C° 0 mm 3 mps 758 mmHg 58%
    17:00 +19°C° 0 mm 3 mps 758 mmHg 61%
    18:00 +17°C° 0 mm 2 mps 758 mmHg 69%
    19:00 +15°C° 0 mm 2 mps 759 mmHg 76%
    20:00 +13°C° 0 mm 1 mps 759 mmHg 83%
    21:00 +13°C° 0 mm 1 mps 759 mmHg 84%
    22:00 +13°C° 0 mm 1 mps 759 mmHg 85%
    23:00 +13°C° 0 mm 2 mps 759 mmHg 85%

    25 October, Wednesday

    Time Temperature Precipitation Wind Pressure Humidity
    00:00 +13°C° 0 mm 2 mps 759 mmHg 85%
    01:00 +11°C° 0 mm 3 mps 758 mmHg 85%
    02:00 +11°C° 0 mm 3 mps 758 mmHg 85%
    03:00 +11°C° 0 mm 3 mps 758 mmHg 86%
    04:00 +11°C° 0 mm 4 mps 758 mmHg 87%
    05:00 +11°C° 0 mm 4 mps 758 mmHg 89%
    06:00 +13°C° 0 mm 4 mps 758 mmHg 82%
    07:00 +15°C° 0 mm 4 mps 758 mmHg 76%
    08:00 +16°C° 0 mm 5 mps 758 mmHg 70%
    09:00 +19°C° 0 mm 4 mps 758 mmHg 64%
    10:00 +21°C° 0 mm 4 mps 758 mmHg 59%
    11:00 +23°C° 0 mm 4 mps 758 mmHg 53%
    12:00 +23°C° 0.1 mm 5 mps 757 mmHg 58%
    13:00 +22°C° 0.1 mm 5 mps 757 mmHg 63%
    14:00 +21°C° 0.1 mm 6 mps 756 mmHg 67%
    15:00 +21°C° 0.1 mm 5 mps 756 mmHg 70%
    16:00 +20°C° 0.1 mm 5 mps 756 mmHg 72%
    17:00 +20°C° 0.1 mm 5 mps 756 mmHg 74%
    18:00 +19°C° 0 mm 4 mps 757 mmHg 78%
    19:00 +18°C° 0 mm 3 mps 757 mmHg 82%
    20:00 +17°C° 0 mm 3 mps 757 mmHg 87%
    21:00 +16°C° 0 mm 3 mps 757 mmHg 89%
    22:00 +16°C° 0 mm 3 mps 757 mmHg 91%
    23:00 +14°C° 0 mm 3 mps 756 mmHg 93%

    26 October, Thursday

    Time Temperature Precipitation Wind Pressure Humidity
    00:00 +14°C° 0 mm 4 mps 756 mmHg 93%
    01:00 +14°C° 0 mm 4 mps 755 mmHg 94%
    02:00 +13°C° 0 mm 5 mps 754 mmHg 94%
    03:00 +14°C° 0 mm 5 mps 754 mmHg 92%
    04:00 +14°C° 0 mm 5 mps 753 mmHg 91%
    05:00 +14°C° 0 mm 6 mps 753 mmHg 89%
    06:00 +15°C° 0 mm 6 mps 752 mmHg 85%
    07:00 +16°C° 0 mm 7 mps 752 mmHg 81%
    08:00 +17°C° 0 mm 7 mps 752 mmHg 77%
    09:00 +18°C° 0.2 mm 8 mps 751 mmHg 73%
    10:00 +20°C° 0.2 mm 8 mps 750 mmHg 69%
    11:00 +19°C° 0.2 mm 9 mps 750 mmHg 65%
    12:00 +18°C° 0.9 mm 9 mps 750 mmHg 72%
    13:00 +16°C° 0.9 mm 10 mps 750 mmHg 78%
    14:00 +13°C° 0.9 mm 11 mps 749 mmHg 85%
    15:00 +13°C° 0.2 mm 11 mps 750 mmHg 77%
    16:00 +13°C° 0.2 mm 11 mps 751 mmHg 68%
    17:00 +14°C° 0.2 mm 10 mps 751 mmHg 60%
    18:00 +13°C° 0 mm 9 mps 752 mmHg 62%
    19:00 +12°C° 0 mm 8 mps 752 mmHg 65%
    20:00 +11°C° 0 mm 8 mps 753 mmHg 67%
    21:00 +10°C° 0 mm 8 mps 753 mmHg 69%
    22:00 +10°C° 0 mm 8 mps 754 mmHg 72%
    23:00 +10°C° 0 mm 8 mps 754 mmHg 74%

    27 October, Friday

    Time Temperature Precipitation Wind Pressure Humidity
    00:00 +10°C° 0.1 mm 7 mps 753 mmHg 75%
    01:00 +9°C° 0.1 mm 7 mps 753 mmHg 76%
    02:00 +9°C° 0.1 mm 7 mps 752 mmHg 77%
    03:00 +10°C° 0 mm 7 mps 752 mmHg 77%
    04:00 +10°C° 0 mm 7 mps 753 mmHg 76%
    05:00 +10°C° 0 mm 8 mps 753 mmHg 76%
    06:00 +11°C° 0.1 mm 8 mps 753 mmHg 74%
    07:00 +12°C° 0.1 mm 8 mps 753 mmHg 72%
    08:00 +13°C° 0.1 mm 8 mps 753 mmHg 70%
    09:00 +13°C° 0.1 mm 9 mps 753 mmHg 71%
    10:00 +13°C° 0.1 mm 9 mps 753 mmHg 72%
    11:00 +13°C° 0.1 mm 9 mps 753 mmHg 72%
    12:00 +15°C° 0.1 mm 9 mps 752 mmHg 71%
    13:00 +15°C° 0.1 mm 9 mps 752 mmHg 70%
    14:00 +15°C° 0.1 mm 9 mps 752 mmHg 69%
    15:00 +16°C° 0.1 mm 9 mps 752 mmHg 68%
    16:00 +16°C° 0.1 mm 8 mps 752 mmHg 67%
    17:00 +16°C° 0.1 mm 8 mps 752 mmHg 66%
    18:00 +15°C° 0.1 mm 8 mps 752 mmHg 67%
    19:00 +15°C° 0.1 mm 8 mps 752 mmHg 69%
    20:00 +13°C° 0.1 mm 8 mps 752 mmHg 71%
    21:00 +13°C° 0.1 mm 8 mps 752 mmHg 73%
    22:00 +13°C° 0.1 mm 9 mps 751 mmHg 75%
    23:00 +13°C° 0.1 mm 9 mps 751 mmHg 77%
    Show more